SCP
1 1 1 1 1 1 1 1 1 1 1 1 1 1 1 1 1 1 1 1 1 1 1 1 1 1 1 1 1 1 1 1 1 1 1 1 1 0 0 0 0 0 0
1 1 1 1 1 1 1 1 1 1 1 1 1 1 1 1 1 1 1 1 1 1 1 1 1 1 1 1 1 1 1 1 1 1 1 1 1 0 0 0 0 0 0
1 1 1 1 1 1 1 1 1 1 1 1 1 1 1 1 1 1 1 1 1 1 1 1 1 1 1 1 1 1 1 1 1 1 0 0 0 0 0 0 0 0 0
1 1 1 1 1 1 1 1 1 1 1 1 1 1 1 1 1 1 1 1 1 1 1 1 1 1 1 1 1 1 0 0 0 0 0 0 0 0 0 0 0 0 0
1 1 1 1 1 1 1 1 1 1 1 1 1 1 1 1 1 1 1 1 1 1 1 1 1 0 0 0 0 0 0 0 0 0 0 0 0 0 0 0 0 0 0
1 1 1 1 1 1 1 1 1 1 1 1 1 1 1 0 0 0 0 0 1 1 1 1 0 0 0 0 0 0 0 0 0 0 0 0 0 0 0 0 0 0 0
1 1 1 1 1 1 1 1 1 1 1 1 1 1 1 0 0 0 0 0 1 1 1 1 0 0 0 0 0 0 0 0 0 0 0 0 0 0 0 0 0 0 0
1 1 1 1 1 1 1 1 1 1 1 1 1 1 1 0 0 0 0 0 0 1 1 1 1 0 0 0 0 0 0 0 0 0 0 0 0 0 0 0 0 0 0
0 0 1 1 1 1 1 1 1 1 1 1 1 1 1 0 0 0 0 0 0 0 1 1 0 0 0 0 0 0 0 0 0 0 0 0 0 0 0 0 0 0 0
0 0 1 1 1 1 1 1 1 1 1 1 1 1 1 0 0 0 0 0 0 0 0 0 0 0 0 0 0 0 0 0 0 0 0 0 0 0 0 0 0 0 0
0 1 1 1 1 1 1 1 1 1 1 1 1 1 0 0 0 0 0 0 0 0 0 0 0 0 0 0 0 0 0 0 0 0 0 0 0 0 0 0 0 0 0
1 1 1 1 1 1 1 1 1 1 1 1 1 0 0 0 0 0 0 0 0 0 0 0 0 0 0 0 0 0 0 0 0 0 0 0 0 0 0 0 0 0 0
0 1 1 1 1 1 1 1 1 1 1 1 0 0 0 0 0 0 0 0 0 0 0 0 0 0 0 0 0 0 0 0 0 0 0 0 0 0 0 0 0 0 0
0 1 1 1 1 1 1 1 1 1 1 1 0 0 0 0 0 0 0 0 0 0 0 0 0 0 0 0 0 0 0 0 0 0 0 0 0 0 0 0 0 0 0
0 1 1 1 1 1 1 1 1 1 0 0 0 0 0 0 0 0 0 0 0 0 0 0 0 0 0 0 0 0 0 0 0 0 0 0 0 0 0 0 0 0 0
1 1 1 1 1 1 0 0 0 0 0 0 0 0 0 0 0 0 0 0 0 0 0 0 0 0 0 0 0 0 0 0 0 0 0 0 0 0 0 0 0 0 0
0 1 1 1 1 0 0 0 0 0 0 0 0 0 0 0 0 0 0 0 0 0 0 0 0 0 0 0 0 0 0 0 0 0 0 0 0 0 0 0 0 0 0
0 0 0 0 0 0 0 0 0 0 0 0 0 0 0 0 0 0 0 0 0 0 0 0 0 0 0 0 0 0 0 0 0 0 0 0 0 0 0 0 0 0 0
0 0 0 0 0 0 0 0 0 0 0 0 0 0 0 0 0 0 0 0 0 0 0 0 0 0 0 0 0 0 0 0 0 0 0 0 0 0 0 0 0 0 0
0 0 0 0 0 0 0 0 0 0 0 0 0 0 0 0 0 0 0 0 0 0 0 0 0 0 0 0 0 0 0 0 0 0 0 0 0 0 0 0 0 0 0
0 0 0 0 0 0 0 0 0 0 0 0 0 0 0 0 0 0 0 0 0 0 0 0 0 0 0 0 0 0 0 0 0 0 0 0 0 0 0 0 0 0 0
0 0 0 0 0 0 0 0 0 0 0 0 0 0 0 0 0 0 0 0 0 0 0 0 0 0 0 0 0 0 0 0 0 0 0 0 0 0 0 0 0 0 0
0 0 0 0 0 0 0 0 0 0 0 0 0 0 0 0 0 0 0 0 0 0 0 0 0 0 0 0 0 0 0 0 0 0 0 0 0 0 0 0 0 0 0
0 0 0 0 0 0 0 0 0 0 0 0 0 0 0 0 0 0 0 0 0 0 0 0 0 0 0 0 0 0 0 0 0 0 0 0 0 0 0 0 0 0 0
0 0 0 0 0 0 0 0 0 0 0 0 0 0 0 0 0 0 0 0 0 0 0 0 0 0 0 0 0 0 0 0 0 0 0 0 0 0 0 0 0 0 0
0 0 0 0 0 0 0 0 0 0 0 0 0 0 0 0 0 0 0 0 0 0 0 0 0 0 0 0 0 0 0 0 0 0 0 0 0 0 0 0 0 0 0
Wind_Speed
3 3 2 3 4 3 3 3 3 2 2 2 2 3 3 2 2 2 2 2 2 3 3 3 3 3 2 2 1 1 1 1 2 2 0 0 1 1 1 1 1 3 4
2 2 2 2 3 3 3 2 3 2 3 2 2 3 3 3 2 3 3 2 2 3 3 2 3 3 3 2 2 2 2 1 1 2 1 1 1 1 1 2 2 2 2
1 1 2 2 2 3 3 2 3 3 3 3 3 3 3 3 3 3 3 3 3 2 2 2 2 2 3 2 2 2 2 2 1 1 2 1 1 1 1 2 2 2 3
1 1 2 2 2 3 3 3 3 3 3 3 3 3 3 3 2 2 2 3 2 2 2 2 2 2 2 2 3 3 3 2 2 2 2 1 1 1 1 2 2 2 3
1 2 2 2 2 3 3 3 3 3 4 3 3 3 4 3 3 2 3 3 2 2 2 2 2 2 2 2 2 1 2 2 2 2 2 1 1 1 1 2 2 2 2
1 1 2 2 3 3 3 3 3 3 3 3 3 4 4 3 3 3 2 2 2 3 2 2 3 3 3 4 4 3 2 2 2 2 2 2 2 1 1 2 2 2 2
1 1 1 2 2 2 2 2 3 3 3 3 4 4 3 3 4 4 4 3 3 3 3 2 3 2 3 3 4 5 4 5 5 4 3 4 3 2 1 2 2 3 3
2 2 2 3 3 2 2 2 3 3 4 4 4 4 4 4 5 5 5 5 3 3 3 3 3 2 2 2 3 3 3 4 5 4 4 4 3 2 2 3 4 4 3
2 2 3 3 3 3 3 2 2 3 3 4 4 4 4 4 6 6 6 4 3 4 4 4 4 3 3 3 3 3 3 3 4 5 5 5 4 5 3 2 2 2 3
3 3 2 2 3 4 3 2 2 3 4 4 4 4 4 4 6 7 6 4 3 3 3 3 3 4 4 4 3 3 4 3 3 3 4 5 6 6 6 5 4 3 3
3 3 2 2 3 3 2 2 3 3 3 4 4 4 4 5 7 8 7 4 3 3 3 3 2 5 6 5 5 4 5 4 3 4 4 4 4 3 4 5 4 4 4
3 2 2 2 3 3 2 2 3 3 4 3 3 3 3 3 5 7 8 7 5 4 3 2 2 5 7 7 6 7 6 4 3 4 4 3 3 3 3 4 5 5 5
3 2 2 3 3 2 3 3 3 3 3 2 2 2 2 2 3 6 8 8 8 4 2 2 3 5 6 7 9 9 6 4 4 4 4 4 3 3 3 3 4 4 5
3 3 3 3 3 2 2 3 2 2 2 2 2 2 2 2 2 2 3 3 4 4 3 2 4 6 6 6 5 5 5 5 4 4 4 3 3 3 3 3 3 3 4
3 3 3 3 3 2 2 2 3 2 2 3 2 2 2 2 2 3 3 3 3 3 3 3 3 3 4 4 4 4 4 4 4 4 4 3 3 3 3 3 3 3 4
3 3 3 3 3 2 3 2 2 2 2 3 3 2 1 1 2 2 3 4 4 3 3 4 4 4 4 4 3 3 3 4 3 3 3 3 3 3 3 3 3 3 4
4 3 3 3 3 2 3 2 1 1 1 2 2 3 3 3 2 2 3 3 3 4 4 5 4 4 4 3 3 2 3 3 3 3 3 3 3 3 3 3 3 4 4
4 4 4 3 3 3 3 3 3 2 1 1 1 3 4 4 4 3 3 1 2 3 4 4 4 3 3 2 2 2 2 2 2 2 3 3 2 3 3 3 3 4 3
5 3 3 3 3 3 3 3 3 2 1 1 1 1 2 2 2 3 3 3 3 3 3 2 2 2 2 2 2 2 2 2 2 2 2 3 2 3 3 3 4 4 4
4 4 4 3 3 3 2 2 2 1 1 0 1 2 2 2 1 1 2 3 3 2 2 2 2 2 2 2 2 2 2 2 2 2 2 2 2 3 4 4 3 3 3
4 4 4 4 3 2 2 2 1 1 1 1 0 1 3 2 2 2 2 2 2 2 1 1 1 1 1 2 2 2 2 2 2 2 2 2 2 3 3 3 3 3 3
3 3 2 2 2 1 1 2 1 1 1 2 1 1 2 1 1 1 1 1 1 1 1 1 2 1 1 2 2 2 2 2 2 2 2 2 2 2 2 2 3 3 3
3 2 1 1 1 0 1 1 2 2 1 1 1 1 0 1 1 1 1 1 1 1 1 1 1 2 2 3 3 2 2 2 2 3 3 3 3 3 2 2 3 4 3
2 2 1 0 0 1 1 1 1 2 2 1 1 1 1 1 1 1 1 2 2 1 1 1 2 2 3 2 2 3 3 4 4 3 4 4 3 3 3 3 3 4 4
2 1 1 1 0 0 1 1 1 1 2 2 2 2 2 2 2 2 2 1 2 2 2 2 2 2 3 4 5 4 4 4 3 4 4 4 3 3 4 4 3 4 4
2 1 1 1 1 1 1 1 1 1 1 2 2 2 2 2 2 2 2 2 2 2 2 2 3 4 4 4 5 4 3 3 3 4 4 3 3 3 3 3 5 4 3
Wind_Direction
180 191 197 203 207 213 213 210 214 216 200 205 190 190 196 206 209 216 231 220 216 231 244 242 246 255 274 278 281 287 288 273 264 286 271 198 171 185 182 235 215 192 200
168 184 188 194 199 209 211 213 210 209 203 210 204 203 206 200 203 211 235 230 222 226 232 245 249 251 255 269 280 286 282 276 254 270 279 283 253 212 216 235 258 254 221
141 185 181 185 200 207 205 207 208 208 210 210 205 207 215 208 203 216 226 235 230 227 220 234 257 261 255 251 253 268 275 279 261 252 264 250 246 254 234 257 268 278 274
158 201 214 207 211 215 212 210 215 214 216 208 208 214 212 218 213 223 227 239 235 225 223 225 237 236 245 254 252 253 264 278 270 260 261 259 245 247 239 251 269 249 265
195 210 220 232 224 216 213 207 220 225 226 220 213 220 217 213 218 227 239 227 229 236 234 218 213 215 215 232 257 268 276 281 282 272 271 276 251 234 251 259 268 267 259
243 229 220 224 225 213 211 210 214 227 230 222 225 224 226 228 204 206 236 241 231 228 236 231 213 208 200 209 225 234 234 248 266 270 269 267 264 267 271 278 275 289 285
265 251 245 242 234 224 219 212 213 218 225 223 227 226 215 213 198 203 227 237 236 224 224 237 245 222 203 213 223 225 231 237 235 243 262 274 275 273 281 287 280 278 274
260 254 248 252 250 243 230 218 227 227 228 228 232 227 211 213 199 204 225 230 235 229 225 224 226 234 234 226 238 230 228 232 231 230 239 257 268 275 262 261 270 276 267
274 272 257 247 254 249 241 235 236 234 231 231 232 226 219 211 201 203 210 227 227 230 227 222 211 210 220 217 234 245 248 260 259 249 241 248 251 254 249 257 265 273 282
290 288 279 271 265 258 248 248 251 246 239 235 234 229 227 221 200 198 201 228 232 240 234 214 217 208 199 208 229 249 254 260 277 277 264 256 244 240 232 229 241 247 266
296 288 283 275 267 259 246 248 248 250 248 239 236 237 229 220 194 196 198 220 236 245 243 222 202 196 203 213 227 242 247 257 261 258 256 249 236 229 219 218 226 231 246
300 287 281 274 268 261 247 245 248 245 244 236 232 236 232 207 193 199 204 218 235 246 248 232 211 212 215 224 230 239 245 250 253 253 254 249 245 235 230 223 226 229 231
303 289 267 264 266 257 238 237 236 237 242 238 225 230 234 218 190 197 204 220 230 237 252 254 247 241 234 235 233 233 233 237 244 250 252 249 245 243 237 231 233 236 239
294 281 262 262 261 254 257 253 235 234 243 239 231 235 227 205 183 185 207 220 229 235 247 256 249 244 247 244 234 221 221 227 234 247 251 255 254 249 246 240 236 233 239
280 273 266 258 258 254 252 274 255 233 230 240 245 236 234 227 205 204 214 225 223 223 225 245 249 244 240 234 226 220 217 221 230 242 248 251 254 257 254 243 244 245 245
270 266 262 262 254 242 240 264 329 269 220 216 229 233 227 193 186 200 219 227 229 218 220 240 243 245 244 240 235 227 220 223 231 240 245 245 247 253 262 257 250 251 250
266 263 261 256 249 250 252 245 254 310 273 240 228 213 206 215 212 221 222 219 230 204 224 244 247 248 252 253 245 238 240 228 220 231 238 243 249 255 261 265 263 261 260
266 261 267 259 250 248 249 250 240 233 242 268 223 203 198 210 219 214 189 175 236 224 236 245 250 253 255 265 276 268 258 250 233 241 247 251 251 259 265 268 265 270 277
263 258 261 270 259 251 247 243 242 245 238 192 138 137 194 204 231 234 196 228 240 244 252 257 262 270 269 262 267 272 268 265 254 253 252 256 255 255 260 262 262 266 267
257 247 250 268 271 258 252 260 261 253 265 202 161 143 153 173 207 207 202 232 247 256 256 268 287 297 304 302 285 270 262 260 265 256 253 255 257 258 264 267 270 271 269
259 244 239 257 262 266 275 278 285 299 293 276 226 154 163 197 211 218 221 232 248 267 295 303 298 292 294 301 306 311 313 296 286 286 279 272 270 273 277 273 274 275 276
273 262 242 257 266 277 293 292 299 297 296 305 336 122 171 228 263 264 266 264 271 315 322 320 313 321 328 330 338 348 343 342 340 337 325 314 300 293 294 296 300 299 290
276 272 264 247 273 290 278 302 310 305 302 323 341 1 130 294 312 316 313 351 10 348 326 320 330 357 19 24 16 8 353 345 347 349 331 321 311 305 300 296 299 298 291
281 287 306 349 14 293 275 292 299 308 317 10 15 352 328 305 306 334 1 17 0 357 11 3 14 22 26 36 36 27 21 6 346 333 322 303 296 291 287 285 285 284 284
278 277 320 344 354 323 326 341 340 343 354 16 12 6 346 333 332 343 356 349 344 1 23 33 40 37 35 40 44 42 34 17 5 341 321 304 298 300 294 288 287 288 291
282 277 318 351 22 26 14 5 359 351 359 18 10 2 353 341 342 355 355 351 359 14 25 45 56 59 57 57 58 52 46 15 2 343 322 308 301 297 302 301 298 291 287